Regional Weather Roundup
Issued by NWS

Home | Current Version | Previous Version | Text Only | Print | Product List | Glossary On
Versions: 1 2 3 4 5 6 7 8 9 10 11 12 13 14 15 16 17 18 19 20 21 22 23 24 25 26 27 28 29 30 31 32 33 34 35 36 37 38 39 40 41 42 43 44 45 46 47 48 49 50
000
ASUS43 KMPX 260610
RWRMN
WEATHER ROUNDUP FOR MINNESOTA
NATIONAL WEATHER SERVICE TWIN CITIES/CHANHASSEN MN
100 AM CDT TUE SEP 26 2017


NOTE: "FAIR" INDICATES FEW OR NO CLOUDS BELOW 12,000 FEET WITH NO
SIGNIFICANT WEATHER AND/OR OBSTRUCTIONS TO VISIBILITY. N/A MEANS
CURRENT SKY AND/OR WEATHER CONDITIONS ARE NOT AVAILABLE.

MNZ060>063-068>070-260700-
   Twin Cities Metro

CITY           SKY/WX    TMP DP  RH WIND       PRES   REMARKS
TWIN CITIES    LGT RAIN  58  58 100 N7        29.95S
6HR MIN TEMP:  58; 6HR MAX TEMP:  60; 6HR PCP:  0.05;

ST PAUL        CLOUDY    58  58 100 N8        29.95S
CRYSTAL        LGT RAIN  57  53  86 N5        29.94S
BLAINE         DRIZZLE   57  57 100 N6        29.95S
LAKEVILLE      DRIZZLE   57  57 100 CALM      29.95S
EDEN PRAIRIE   LGT RAIN  58  56  93 N5        29.93F
6HR MIN TEMP:  58; 6HR MAX TEMP:  60; 6HR PCP:  0.12;

SOUTH ST PAUL  CLOUDY    59  58  96 CALM      29.95R
LAKE ELMO      CLOUDY    59  57  94 CALM      29.96R
$$
MNZ001>005-007-008-013>017-022>024-027-028-260700-
   Northwest Minnesota

CITY           SKY/WX    TMP DP  RH WIND       PRES   REMARKS
BEMIDJI        LGT RAIN  49  49  98 N6        30.05S
HALLOCK          N/A     50  48  93 N6        30.11F
ROSEAU           N/A     50  45  81 N6        30.09F HAZE
WARROAD        DRIZZLE   52  48  87 NE10      30.10R
THIEF RVR FALL CLOUDY    50  48  93 N8        30.09S
CROOKSTON      CLOUDY    52  48  87 N6        30.09S
FOSSTON        LGT RAIN  48  46  93 NE6       30.07S
DETROIT LAKES  LGT RAIN  50  50 100 CALM      30.04F
MOORHEAD       LGT RAIN  50  48  93 NW8       30.07S
PARK RAPIDS    LGT RAIN  53  49  86 NE7       30.02F
MAHNOMEN       LGT RAIN  49  49  98 N5        30.04F
$$
MNZ006-009>011-018-025>026-260700-
   North Central Minnesota

CITY           SKY/WX    TMP DP  RH WIND       PRES   REMARKS
BAUDETTE       CLOUDY    50  48  93 N6        30.09R
FLAG ISLAND    CLOUDY    52  46  82 NE6       30.09R
INTL FALLS     CLOUDY    51  46  83 E6        30.06S
6HR MIN TEMP:  51; 6HR MAX TEMP:  54;

WASKISH        CLOUDY    50  48  93 N3        30.07R
BIG FORK       LGT RAIN  52  50  93 NE5       30.04S
LONGVILLE      DRIZZLE   52  50  93 N5        30.02S
GRAND RAPIDS   LGT RAIN  52  51  97 N3        30.03S
CRANE LAKE     CLOUDY    52  48  87 N3        30.06S
ORR            CLOUDY    52  46  82 CALM      30.02S
WALKER         RAIN      50  49  96 N5        30.03F
$$
MNZ012-019>021-037-260700-
   Northeast Minnesota

CITY           SKY/WX    TMP DP  RH WIND       PRES   REMARKS
DULUTH         LGT RAIN  55  55 100 NE7       29.97F FOG
6HR MIN TEMP:  54; 6HR MAX TEMP:  56; 6HR PCP:  0.06;

ELY            LGT RAIN  52  52 100 NE7       30.03S
HIBBING        LGT RAIN  52  51  97 N6        30.00F
EVELETH        RAIN      53  51  95 NE6       30.01F
GRAND MARAIS     N/A     57  49  74 VRB6      30.01F
$$
MNZ029>031-032-039>041-046>048-054>057-064-260700-
   West Central Minnesota

CITY           SKY/WX    TMP DP  RH WIND       PRES   REMARKS
FERGUS FALLS   LGT RAIN  52  52 100 N6        30.04S
WHEATON        RAIN      50  48  93 NW9       30.05S
ALEXANDRIA     CLOUDY    53  52  96 N9        30.01S
ELBOW LAKE     LGT RAIN  52  51  99 N3        30.02S
WADENA         RAIN      52  52 100 N6        30.00F
GLENWOOD       DRIZZLE   54  52  94 N7        29.99F
APPLETON       DRIZZLE   54  52  94 NW7       30.00S
BENSON         LGT RAIN  54  52  94 N6        30.01S
ORTONVILLE     RAIN      52  48  87 NW8       30.03S
MADISON        DRIZZLE   54  54 100 NW12      30.02R
WILLMAR        CLOUDY    55  55 100 N6        29.99R
$$
MNZ033>034-036-042>043-049>051-058-059-260700-
   Central Minnesota

CITY           SKY/WX    TMP DP  RH WIND       PRES   REMARKS
ST CLOUD       LGT RAIN  55  55 100 N3        29.96F
6HR MIN TEMP:  55; 6HR MAX TEMP:  57; 6HR PCP:  0.12;

SAUK CENTRE    DRIZZLE   53  52  97 N5        29.98F
PAYNESVILLE    DRIZZLE   55  54  99 N7        29.97F
AITKIN         RAIN      52  50  93 N7        29.98F
PINE RIVER     DRIZZLE   50  48  93 N6        30.04F
BRAINERD       LGT RAIN  53  52  96 N7        29.99F FOG
LITTLE FALLS   DRIZZLE   54  50  87 N3        29.98F
LITCHFIELD     DRIZZLE   55  55 100 N6        29.96F
BUFFALO        RAIN      55  53  91 N5        29.96F
MAPLE LAKE     DRIZZLE   56  55  97 NE5       29.97F
HUTCHINSON     DRIZZLE   56  56  98 N7        29.96F
$$
MNZ037-044-045-052-053-260700-
   East Central Minnesota

CITY           SKY/WX    TMP DP  RH WIND       PRES   REMARKS
PRINCETON      LGT RAIN  55  55 100 N3        29.96F
MORA           RAIN      54  52  94 CALM      29.98F
RUSH CITY      LGT RAIN  55  54  95 N5        29.95F
MOOSE LAKE     DRIZZLE   54  54 100 N3        29.96S
HINCKLEY       DRIZZLE   55  55 100 N7        29.96F
CLOQUET        RAIN      55  54  94 N5        29.97F
MCGREGOR       CLOUDY    54  52  94 N6        29.99F
$$
MNZ071>073-080-081-089-090-097-098-260700-
   Southwest Minnesota

CITY           SKY/WX    TMP DP  RH WIND       PRES   REMARKS
MONTEVIDEO     DRIZZLE   54  52  94 N7        30.00R
GRANITE FALLS  HVY RAIN  55  55  98 NW5       30.01R
CANBY          DRIZZLE   51  51  97 W8        30.03R
MARSHALL       RAIN      52  51  97 NW12      29.99F FOG
REDWOOD FALLS  LGT RAIN  56  54  93 NW3       29.97R
OLIVIA         DRIZZLE   54  52  94 N5        29.96S
PIPESTONE      HVY RAIN  52  50  93 N7        30.00S
WORTHINGTON    LGT RAIN  54  53  97 N7        29.98R
JACKSON        RAIN      55  55 100 CALM      29.97R
TRACY          LGT RAIN  54  54 100 NW8       29.99R
SLAYTON        LGT RAIN  52  45  77 N7        29.99S
$$
MNZ065>067-074>077-082>085-091>093-260700-
   South Central Minnesota

CITY           SKY/WX    TMP DP  RH WIND       PRES   REMARKS
NEW ULM        RAIN      55  55 100 CALM      29.95S
ST JAMES       RAIN      55  55 100 CALM      29.96S
FAIRMONT       LGT RAIN  57  56  96 N3        29.96R
FARIBAULT      DRIZZLE   59  57  94 CALM      29.95S
OWATONNA       LGT RAIN  59  57  94 N3        29.94F
WASECA         DRIZZLE   57  55  94 N3        29.95S
ALBERT LEA     LGT RAIN  63  63 100 NE3       29.94S
$$
MNZ078>079-086>088-094>096-260700-
   Southeast Minnesota

CITY           SKY/WX    TMP DP  RH WIND       PRES   REMARKS
ROCHESTER      LGT RAIN  62  62 100 NE3       29.94F
6HR MIN TEMP:  62; 6HR MAX TEMP:  64; 6HR PCP:  0.44;

RED WING       LGT RAIN  63  59  88 CALM      29.92F
STANTON        RAIN      60  57  91 CALM      29.93F
DODGE CENTER   LGT RAIN  61  57  88 N3        29.93F VSB 1/2
WINONA         CLOUDY    64  63  94 CALM      29.92F
AUSTIN         CLOUDY    63  61  94 CALM      29.99R FOG
PRESTON        FOG       64  62  95 E3        29.94F VSB 1/4
$$
ABBREVIATIONS USED IN REMARKS
   TC - TEMPERATURES IN CELSIUS
  WCI - WIND CHILL INDEX
   HX - HEAT INDEX
  VSB - VISIBILITY
$$




USA.gov is the U.S. government's official web portal to all federal, state and local government web resources and services.